{"data":{"norad_id":55651,"epoch":"2026-09-20T14:11:28.374432Z","epoch_age_seconds":95195,"freshness":"FRESH","line1":"1 55651U 23021Z   26263.59130063  .00000170  00000+0  22046-4 0  9991","line2":"2 55651  70.0000  53.1275 0003092 270.2675  89.8130 14.98331304197986","mean_motion":14.98331304,"eccentricity":0.0003092,"inclination_deg":70,"raan_deg":53.1275,"arg_perigee_deg":270.2675,"mean_anomaly_deg":89.813,"bstar":2.2046e-5,"rev_number":19798,"period_min":96.106915483627,"perigee_km":569.90286003988,"apogee_km":574.20085682994,"semimajor_km":6950.1888584349,"source":"CELESTRAK","updated_at":"2026-09-21T09:00:33.285258Z"}}